This demonstration page uses our WeatherBlox Daily Observations layout. Learn more.

Hourly Observations for September 30, 2018

Temp ( °F °C ) Dew Point ( °F °C ) Humidity (%) Winds ( mph kmh ) Pressure ( in mb ) Visibility ( mi km ) Precip ( " mm )
12:15 am 00:15 Cloudy 49 9.7 49 9.7 100 100 ENE 5 7 30.09 1019 10 16.09344 0 0
12:35 am 00:35 Cloudy 50 10 50 10 100 100 NE 7 11 30.12 1020 10 16.09344 0 0
12:55 am 00:55 Cloudy 50 10 50 10 100 100 ENE 7 11 30.06 1018 10 16.09344 0 0
1:15 am 01:15 Cloudy 50 10.1 50 10.1 100 100 NE 6 9 30.06 1018 10 16.09344 0 0
1:35 am 01:35 Cloudy 50 10.2 50 10.1 99 99 NE 7 11 30.09 1019 10 16.09344 0 0
1:55 am 01:55 Cloudy 50 10.2 50 10 99 99 NE 7 11 30.09 1019 10 16.09344 0 0
2:15 am 02:15 Cloudy 50 10.2 50 10 99 99 NE 8 13 30.09 1019 10 16.09344 0 0
2:35 am 02:35 Cloudy 50 10.1 50 10 99 99 NE 10 17 30.09 1019 10 16.09344 0 0
2:55 am 02:55 Cloudy 50 10.1 50 10 99 99 NE 10 17 30.09 1019 10 16.09344 0 0
3:15 am 03:15 Cloudy with Mist and Fog 50 10.1 50 10 99 99 NE 7 11 30.09 1019 5 8.04672 0 0
3:35 am 03:35 Cloudy with Mist and Fog 50 10 50 10 100 100 NE 9 15 30.12 1020 5 8.04672 0 0
3:55 am 03:55 Cloudy with Mist and Fog 50 9.8 50 9.8 100 100 NE 8 13 30.12 1020 5 8.04672 0 0
4:15 am 04:15 Cloudy 49 9.7 49 9.7 100 100 NE 14 22 30.12 1020 7 11.265408 0 0
4:35 am 04:35 Cloudy with Mist and Fog 49 9.6 49 9.6 100 100 NE 13 20 30.12 1020 5 8.04672 0 0
4:55 am 04:55 Cloudy with Mist and Fog 49 9.5 49 9.5 100 100 NE 12 19 30.12 1020 4 6.437376 0 0
5:15 am 05:15 Cloudy with Mist and Fog 49 9.3 49 9.3 100 100 NE 13 20 30.12 1020 5 8.04672 0 0
5:35 am 05:35 Cloudy with Mist and Fog 49 9.2 49 9.2 100 100 NE 12 19 30.15 1021 3 4.828032 0 0
5:55 am 05:55 Cloudy with Mist and Fog 49 9.2 49 9.2 100 100 NE 12 19 30.15 1021 3 4.828032 0 0
6:15 am 06:15 Cloudy with Mist and Fog 49 9.2 49 9.2 100 100 NE 12 19 30.15 1021 4 6.437376 0 0
6:35 am 06:35 Cloudy with Mist and Fog 48 9 48 9 100 100 NE 14 22 30.15 1021 4 6.437376 0 0
6:55 am 06:55 Cloudy with Light Drizzle 48 8.7 48 8.7 100 100 NNE 15 24 30.15 1021 3 4.828032 0.01 0.254
7:15 am 07:15 Cloudy with Light Rain 47 8.3 47 8.3 100 100 NNE 14 22 30.15 1021 3 4.828032 0 0
7:35 am 07:35 Cloudy with Light Rain 47 8.2 47 8.2 100 100 NNE 16 26 30.15 1021 3 4.828032 0 0
7:55 am 07:55 Cloudy with Light Drizzle 47 8.3 47 8.3 100 100 NNE 16 26 30.15 1021 3 4.828032 0 0
8:15 am 08:15 Cloudy with Light Rain 47 8.2 47 8.2 100 100 NNE 14 22 30.15 1021 2.5 4.02336 0.01 0.254
8:35 am 08:35 Cloudy with Light Rain 47 8.1 47 8.1 100 100 NE 16 26 30.15 1021 2 3.218688 0.01 0.254
8:55 am 08:55 Cloudy with Light Rain 47 8.2 47 8.2 100 100 NE 14 22 30.15 1021 2.5 4.02336 0.01 0.254
9:15 am 09:15 Cloudy with Light Rain 47 8.1 47 8.1 100 100 NE 16 26 30.15 1021 2.5 4.02336 0 0
9:35 am 09:35 Cloudy with Light Rain 47 8.1 47 8.1 100 100 NNE 14 22 30.18 1022 3 4.828032 0.01 0.254
9:55 am 09:55 Cloudy with Light Drizzle 47 8.1 47 8.1 100 100 NNE 17 28 30.18 1022 3 4.828032 0.01 0.254
10:15 am 10:15 Cloudy with Light Rain 47 8.2 47 8.2 100 100 NNE 14 22 30.18 1022 2.5 4.02336 0 0
10:35 am 10:35 Cloudy with Mist and Fog 47 8.5 47 8.5 100 100 NNE 16 26 30.18 1022 3 4.828032 0 0
10:55 am 10:55 Cloudy with Mist and Fog 47 8.5 47 8.5 100 100 NE 15 24 30.18 1022 5 8.04672 0 0
11:15 am 11:15 Cloudy with Mist and Fog 47 8.6 47 8.5 99 99 NE 14 22 30.18 1022 4 6.437376 0 0
11:35 am 11:35 Cloudy with Mist and Fog 47 8.5 47 8.5 100 100 NE 15 24 30.18 1022 3 4.828032 0.01 0.254
11:55 am 11:55 Cloudy with Mist and Fog 47 8.5 47 8.5 100 100 NE 14 22 30.18 1022 4 6.437376 0.01 0.254
12:15 pm 12:15 Cloudy 47 8.5 47 8.5 100 100 NE 16 26 30.18 1022 7 11.265408 0 0
12:35 pm 12:35 Cloudy 47 8.6 47 8.5 99 99 NE 15 24 30.18 1022 7 11.265408 0 0
12:55 pm 12:55 Cloudy 47 8.6 47 8.6 100 100 NE 16 26 30.18 1022 7 11.265408 0 0
1:15 pm 13:15 Cloudy 47 8.6 47 8.5 99 99 NE 14 22 30.18 1022 10 16.09344 0 0
1:35 pm 13:35 Cloudy 48 8.8 47 8.5 98 98 NE 13 20 30.18 1022 10 16.09344 0 0
1:55 pm 13:55 Cloudy 48 9 48 8.8 99 99 NE 13 20 30.15 1021 10 16.09344 0 0
2:15 pm 14:15 Cloudy 48 8.7 47 8.5 99 99 NE 12 19 30.15 1021 7 11.265408 0 0
2:35 pm 14:35 Cloudy 48 9.1 48 8.8 98 98 NE 13 20 30.15 1021 7 11.265408 0 0
2:55 pm 14:55 Cloudy with Mist and Fog 48 8.7 47 8.5 99 99 NNE 12 19 30.15 1021 3 4.828032 0 0
3:15 pm 15:15 Cloudy with Mist and Fog 48 8.8 48 8.7 99 99 NE 14 22 30.15 1021 3 4.828032 0 0
3:35 pm 15:35 Cloudy with Mist and Fog 48 8.8 48 8.7 99 99 NE 12 19 30.15 1021 2.5 4.02336 0 0
3:55 pm 15:55 Cloudy with Mist and Fog 48 9 48 8.9 99 99 NNE 13 20 30.15 1021 4 6.437376 0 0
4:15 pm 16:15 Cloudy 48 9.1 48 9 99 99 NE 12 19 30.15 1021 7 11.265408 0 0
4:35 pm 16:35 Cloudy with Mist and Fog 48 9 48 9 100 100 NE 12 19 30.15 1021 3 4.828032 0 0
4:55 pm 16:55 Cloudy 48 9.1 48 9 99 99 NE 10 17 30.15 1021 10 16.09344 0 0
5:15 pm 17:15 Cloudy 48 9 48 9 100 100 NE 10 17 30.15 1021 7 11.265408 0 0
5:35 pm 17:35 Cloudy 48 8.7 48 8.7 100 100 NE 9 15 30.15 1021 7 11.265408 0 0
5:55 pm 17:55 Cloudy 48 8.8 47 8.6 99 99 NE 12 19 30.15 1021 10 16.09344 0 0
6:15 pm 18:15 Cloudy 48 8.8 47 8.6 99 99 NE 10 17 30.15 1021 10 16.09344 0 0
6:35 pm 18:35 Cloudy 47 8.6 47 8.6 100 100 NNE 13 20 30.15 1021 10 16.09344 0 0
7:15 pm 19:15 Cloudy 47 8.3 47 8.3 100 100 NE 14 22 30.15 1021 7 11.265408 0 0
7:35 pm 19:35 Cloudy 47 8.2 47 8.2 100 100 NE 10 17 30.15 1021 10 16.09344 0 0
7:55 pm 19:55 Cloudy 47 8.2 47 8.2 100 100 NE 13 20 30.15 1021 10 16.09344 0 0
8:15 pm 20:15 Cloudy 46 8 46 8 100 100 ENE 15 24 30.15 1021 7 11.265408 0 0
8:35 pm 20:35 Cloudy 46 8 46 8 100 100 NE 12 19 30.15 1021 10 16.09344 0 0
8:55 pm 20:55 Cloudy 46 8 46 8 100 100 NE 12 19 30.15 1021 10 16.09344 0 0
9:15 pm 21:15 Cloudy with Mist and Fog 46 8 46 8 100 100 NE 9 15 30.15 1021 5 8.04672 0 0
9:35 pm 21:35 Cloudy 46 8 46 8 100 100 ENE 10 17 30.15 1021 7 11.265408 0 0
9:55 pm 21:55 Cloudy with Mist and Fog 46 8 46 8 100 100 ENE 10 17 30.15 1021 4 6.437376 0 0
10:15 pm 22:15 Cloudy with Mist and Fog 46 8 46 8 100 100 ENE 9 15 30.15 1021 4 6.437376 0 0
10:35 pm 22:35 Cloudy with Mist and Fog 46 8 46 8 100 100 ENE 9 15 30.15 1021 4 6.437376 0 0
10:55 pm 22:55 Cloudy with Mist and Fog 46 7.8 46 7.8 100 100 ENE 8 13 30.15 1021 5 8.04672 0 0
11:15 pm 23:15 Cloudy with Mist and Fog 46 8 46 8 100 100 ENE 8 13 30.18 1022 5 8.04672 0 0
11:35 pm 23:35 Cloudy with Mist and Fog 46 7.8 46 7.8 100 100 ENE 8 13 30.15 1021 4 6.437376 0 0
11:55 pm 23:55 Cloudy with Mist and Fog 46 7.8 46 7.8 100 100 NE 7 11 30.15 1021 4 6.437376 0 0

Powered by AerisWeather